This is the latest recevied weather packets stored in our database for station/object KC5DAQ-25. If no packets are shown the sender has not sent any weather packets the latest 10 day(s).
| Time | Temp. | Humidity | Pressure | Rain* | Wind** | Luminosity | Snow |
|---|---|---|---|---|---|---|---|
| 1777478231 | 27.22° C | 81% | 1004.6 hPa | 0 mm | - | 513 W/m² | - |
| 1777478170 | 27.22° C | 81% | 1004.6 hPa | 0 mm | - | 557 W/m² | - |
| 1777478111 | 27.22° C | 81% | 1004.7 hPa | 0 mm | - | 557 W/m² | - |
| 1777478050 | 27.22° C | 81% | 1004.6 hPa | 0 mm | - | 396 W/m² | - |
| 1777477990 | 27.22° C | 81% | 1004.7 hPa | 0 mm | - | 396 W/m² | - |
| 1777477930 | 27.22° C | 82% | 1004.6 hPa | 0 mm | - | 396 W/m² | - |
| 1777477871 | 27.22° C | 81% | 1004.6 hPa | 0 mm | - | 396 W/m² | - |
| 1777477810 | 27.22° C | 81% | 1004.6 hPa | 0 mm | - | 320 W/m² | - |
| 1777477751 | 26.67° C | 81% | 1004.6 hPa | 0 mm | - | 320 W/m² | - |
| 1777477689 | 26.67° C | 82% | 1004.7 hPa | 0 mm | - | 320 W/m² | - |
| 1777477630 | 26.67° C | 82% | 1004.6 hPa | 0 mm | - | 320 W/m² | - |
| 1777477569 | 26.67° C | 82% | 1004.7 hPa | 0 mm | - | 320 W/m² | - |
| 1777477509 | 26.67° C | 81% | 1004.7 hPa | 0 mm | - | 320 W/m² | - |
| 1777477451 | 26.67° C | 81% | 1004.7 hPa | 0 mm | - | 301 W/m² | - |
| 1777477391 | 26.67° C | 82% | 1004.7 hPa | 0 mm | - | 244 W/m² | - |
| 1777477329 | 26.67° C | 82% | 1004.7 hPa | 0 mm | - | 244 W/m² | - |
| 1777477270 | 26.67° C | 82% | 1004.7 hPa | 0 mm | - | 244 W/m² | - |
| 1777477209 | 26.67° C | 82% | 1004.8 hPa | 0 mm | - | 244 W/m² | - |
| 1777477151 | 26.67° C | 81% | 1004.7 hPa | 0 mm | - | 244 W/m² | - |
| 1777477089 | 26.67° C | 81% | 1004.6 hPa | 0 mm | - | 243 W/m² | - |
| 1777477030 | 26.67° C | 82% | 1004.7 hPa | 0 mm | - | 243 W/m² | - |
| 1777476970 | 26.67° C | 82% | 1004.5 hPa | 0 mm | - | 223 W/m² | - |
| 1777476909 | 26.67° C | 82% | 1004.6 hPa | 0 mm | - | 223 W/m² | - |
| 1777476848 | 26.67° C | 82% | 1004.5 hPa | 0 mm | - | 223 W/m² | - |
| 1777476783 | 26.67° C | 82% | 1004.5 hPa | 0 mm | - | 171 W/m² | - |
* Rain latest hour (hover to see other rain measurements)
** Current wind speed in m/s (hover to see current wind gust speed)